Location: ??? ????
(38.0580°N, 23.1536°E)
Time: 15:07:26
(UTC+00:00)

USA 59 Rocket - Pass Details

Date: 13 December 2025
Orbit: 369 x 1675 km, 63.3° (Epoch: 17 January)

Event Time Altitude Azimuth Distance (km) Brightness Sun altitude
Rises 16:53:58 0° 188° (S) 3,075 3.9 -20.1°
Reaches altitude 10° 16:56:53 10° 176° (S) 1,943 2.7 -20.7°
Enters shadow 16:58:55 20° 154° (SSE) 1,284 1.5 -21.1°
